Moose, Wyoming, United States (83012)
Lat: 43.66N, Lon: 110.72W
Wx Zone: WYZ013
Local Info
Past Weather Observations for Saturday, September 27, 2014

NOTE: This archive is for the closest National Weather Service station to Moose. Information may differ from the station used for current weather conditions.

Click here for Long-term Archive

Time Weather Temperature Dewpoint Humidity Pressure Winds Precip Visibility
23:55
Overcast
52°F / 11°C 52°F / 11°C 100% 30.09 in
(1019 mb)
N 11.5 mph
(N 19 kph)
0.04 in
(1.02 mm)
10SM
23:35
Overcast
52°F / 11°C 52°F / 11°C 100% 30.09 in
(1019 mb)
NE 8.1 mph
(NE 13 kph)
0.02 in
(0.51 mm)
10SM
23:15
Overcast
52°F / 11°C 52°F / 11°C 100% 30.09 in
(1019 mb)
NE 3.5 mph
(NE 6 kph)
0.02 in
(0.51 mm)
10SM
22:55
Overcast
52°F / 11°C 52°F / 11°C 100% 30.12 in
(1020 mb)
Calm 0.06 in
(1.52 mm)
8SM
22:35
Overcast
52°F / 11°C 52°F / 11°C 100% 30.09 in
(1019 mb)
N 10.4 mph
(N 17 kph)
0.02 in
(0.51 mm)
9SM
22:15
Overcast
52°F / 11°C 52°F / 11°C 100% 30.06 in
(1018 mb)
N 10.4 mph
(N 17 kph)
- 10SM
21:55
Mostly Cloudy
52°F / 11°C 52°F / 11°C 100% 30.06 in
(1018 mb)
N 15 mph
(N 24 kph)
0.04 in
(1.02 mm)
10SM
21:35
Mostly Cloudy
52°F / 11°C 52°F / 11°C 100% 30.06 in
(1018 mb)
N 13.8 mph
(N 22 kph)
0.04 in
(1.02 mm)
10SM
21:15
Mostly Cloudy
52°F / 11°C 52°F / 11°C 100% 30.06 in
(1018 mb)
N 11.5 mph
(N 19 kph)
0.04 in
(1.02 mm)
7SM
20:55
Overcast
52°F / 11°C 52°F / 11°C 100% 30.09 in
(1019 mb)
NNE 3.5 mph
(NNE 6 kph)
0.05 in
(1.27 mm)
9SM
20:35
Overcast
52°F / 11°C 52°F / 11°C 100% 30.09 in
(1019 mb)
Calm 0.05 in
(1.27 mm)
7SM
20:15
Overcast
52°F / 11°C 52°F / 11°C 100% 30.12 in
(1020 mb)
SSW 4.6 mph
(SSW 7 kph)
0.04 in
(1.02 mm)
5SM
19:55
Overcast
52°F / 11°C 52°F / 11°C 100% 30.09 in
(1019 mb)
S 6.9 mph
(S 11 kph)
0.01 in
(0.25 mm)
7SM
18:52
Overcast
52°F / 11°C 50°F / 10°C 94% 30.09 in
(1019 mb)
Calm - 10SM
17:52
Overcast
54°F / 12°C 52°F / 11°C 94% 30.09 in
(1019 mb)
S 4.6 mph
(S 7 kph)
- 10SM
16:52
Overcast
54°F / 12°C 52°F / 11°C 94% 30.06 in
(1018 mb)
NNW 9.2 mph
(NNW 15 kph)
- 10SM
15:50
Overcast
54°F / 12°C 52°F / 11°C 94% 30.06 in
(1018 mb)
N 9.2 mph
(N 15 kph)
- 9SM
14:52
Mostly Cloudy
54°F / 12°C 52°F / 11°C 94% 30.06 in
(1018 mb)
N 9.2 mph
(N 15 kph)
- 6SM
14:34
Mostly Cloudy
52°F / 11°C 52°F / 11°C 100% 30.06 in
(1018 mb)
NW 9.2 mph
(NW 15 kph)
- 5SM
13:52
Overcast
52°F / 11°C 52°F / 11°C 100% 30.09 in
(1019 mb)
Calm - 5SM
12:51
Overcast
Fog And Mist
52°F / 11°C 50°F / 10°C 94% 30.12 in
(1020 mb)
Calm - 7SM
11:51
Overcast
Rain
52°F / 11°C 52°F / 11°C 100% 30.09 in
(1019 mb)
SW 9.2 mph
(SW 15 kph)
- 5SM
10:51
Mostly Cloudy
52°F / 11°C 52°F / 11°C 100% 30.09 in
(1019 mb)
Calm - 10SM
09:51
Mostly Cloudy
54°F / 12°C 54°F / 12°C 100% 30.09 in
(1019 mb)
Calm - 10SM
09:05
Overcast
54°F / 12°C 54°F / 12°C 100% 30.09 in
(1019 mb)
Calm - 7SM
07:51
Overcast
Showers In Vicinity
52°F / 11°C 52°F / 11°C 100% 30.18 in
(1022 mb)
SSW 5.8 mph
(SSW 9 kph)
- 10SM
06:55
Mostly Cloudy
Showers In Vicinity
52°F / 11°C 52°F / 11°C 100% 30.04 in
(1017 mb)
Calm - 10SM
05:55
Partly Cloudy
Showers In Vicinity
52°F / 11°C 50°F / 10°C 94% 30.06 in
(1018 mb)
NE 9.2 mph
(NE 15 kph)
- 10SM
05:35
Overcast
52°F / 11°C 50°F / 10°C 94% 30.09 in
(1019 mb)
Calm 0.06 in
(1.52 mm)
8SM
05:15
Overcast
52°F / 11°C 50°F / 10°C 94% 30.09 in
(1019 mb)
SW 5.8 mph
(SW 9 kph)
0.01 in
(0.25 mm)
8SM
04:55
Overcast
54°F / 12°C 48°F / 9°C 82% 30.09 in
(1019 mb)
Calm - 10SM
04:35
Overcast
55°F / 13°C 50°F / 10°C 82% 30.06 in
(1018 mb)
Calm - 10SM
04:15
Partly Cloudy
54°F / 12°C 50°F / 10°C 88% 30.06 in
(1018 mb)
Calm - 10SM
03:55
Mostly Cloudy
54°F / 12°C 50°F / 10°C 88% 30.06 in
(1018 mb)
Calm - 10SM
03:35
Mostly Cloudy
54°F / 12°C 50°F / 10°C 88% 30.06 in
(1018 mb)
N 5.8 mph
(N 9 kph)
- 10SM
03:15
Mostly Cloudy
54°F / 12°C 48°F / 9°C 82% 30.06 in
(1018 mb)
N 4.6 mph
(N 7 kph)
- 10SM
02:55
Mostly Cloudy
54°F / 12°C 48°F / 9°C 82% 30.06 in
(1018 mb)
N 6.9 mph
(N 11 kph)
- 10SM
02:35
Overcast
54°F / 12°C 50°F / 10°C 88% 30.06 in
(1018 mb)
Calm - 10SM
02:15
Overcast
55°F / 13°C 50°F / 10°C 82% 30.06 in
(1018 mb)
NNW 8.1 mph
(NNW 13 kph)
- 10SM
01:55
Mostly Cloudy
54°F / 12°C 52°F / 11°C 94% 30.06 in
(1018 mb)
NW 8.1 mph
(NW 13 kph)
- 10SM
01:35
Mostly Cloudy
55°F / 13°C 50°F / 10°C 82% 30.06 in
(1018 mb)
NNW 8.1 mph
(NNW 13 kph)
- 10SM
01:15
Mostly Cloudy
55°F / 13°C 52°F / 11°C 88% 30.06 in
(1018 mb)
N 10.4 mph
(N 17 kph)
- 10SM
00:55
Overcast
55°F / 13°C 52°F / 11°C 88% 30.06 in
(1018 mb)
N 10.4 mph
(N 17 kph)
- 10SM
00:35
Overcast
55°F / 13°C 50°F / 10°C 82% 30.06 in
(1018 mb)
N 13.8 mph
(N 22 kph)
- 10SM
00:15
Overcast
57°F / 14°C 48°F / 9°C 72% 30.06 in
(1018 mb)
N 16.1 mph
(N 26 kph)
- 10SM
Time Weather Temperature Dewpoint Humidity Pressure Winds Precip Visibility


Weather for websites

WeatherForYou.com, LLC is not responsible for any damages or problems caused by this service. Current weather conditions are obtained from the closest station including government and personal stations which may have varying degrees of accuracy. Weather forecasts are derived from the NOAA NDFD. Like all things, this site belongs to Jesus Christ... He just trusts me to maintain it. If you have any questions or comments email webmaster@weatherforyou.com

Copyright © 2014, WeatherForYou.com LLC. All rights reserved.